User: anonymous   Login
Location: Iola
(37.9240°N, 95.4000°W)
Time: 17:14:41
(UTC-05:00)
Language:

Meteor 2-10 Rocket - Orbit

View from above orbital plane
View from above orbital plane
View from above satellite
View from above satellite

Ground track
Ground track

The orbit data is extracted from the following two-line orbital elements,

1 14453U 83109B   16180.20939447  .00000063  00000-0  20526-4 0  9990
2 14453  81.1679 102.4023 0105311   8.3499 351.9399 14.24649698697124
Epoch (UTC): 28 June 2016 05:01:31
Eccentricity: 0.0105311
inclination: 81.1679°
perigee height: 734 km
apogee height: 885 km
right ascension of ascending node: 102.4023°
argument of perigee: 8.3499°
revolutions per day: 14.24649698
mean anomaly at epoch: 351.9399°
orbit number at epoch: 69712

The dashed part of the orbit path shows where the satellite is in the earth's shadow,  

DLR